Theta_e
310 310 310 311 310 311 311 308 303 303 303 303 302 301 303 306 302 304 305 306 309 303 304 307 307 307 308 314 318 320 319 319 319 320 319 318 316 316 315 317 317 318 320 322 314
307 308 310 310 309 309 308 306 304 303 304 303 301 300 303 305 306 304 302 302 302 302 306 308 308 307 310 313 317 318 319 317 318 317 317 317 315 314 313 314 314 314 315 315 313
306 305 305 306 306 305 305 305 304 304 303 303 301 300 303 306 309 304 301 302 301 303 305 307 307 308 310 312 315 318 318 316 314 314 313 313 313 312 312 313 314 314 313 314 311
307 306 305 304 304 304 304 304 304 303 303 303 301 300 304 307 313 303 301 301 302 304 306 308 309 309 310 311 312 312 315 314 314 311 311 312 311 311 311 311 312 309 310 309 308
308 308 307 306 304 304 304 304 304 303 302 302 301 301 308 308 306 302 301 302 304 304 306 308 309 310 311 311 310 310 311 310 310 309 309 308 308 308 308 309 309 308 307 307 307
309 309 308 307 306 305 304 304 303 303 302 302 300 302 306 309 302 302 301 304 305 306 307 308 309 309 310 310 310 310 309 309 308 307 307 306 307 305 309 307 307 308 308 307 307
310 309 309 308 308 307 305 305 303 302 302 302 300 306 306 306 302 302 302 303 304 306 307 307 308 309 308 309 308 308 308 309 308 307 306 305 307 307 308 307 306 306 306 306 306
312 311 310 310 311 309 307 303 301 302 301 300 301 305 305 300 302 302 302 304 304 304 305 306 307 307 308 308 307 307 307 312 307 306 306 304 312 310 305 305 305 305 305 305 305
315 315 314 313 313 312 306 301 302 301 302 300 303 305 306 301 302 301 302 304 304 305 304 304 305 306 305 308 311 310 314 313 309 304 304 305 309 310 305 304 305 305 306 306 306
317 316 316 315 315 315 308 301 302 302 301 302 301 307 303 304 302 301 301 303 305 305 306 307 308 309 307 308 327 316 311 310 308 306 305 305 307 308 309 308 308 307 307 306 306
317 317 316 316 315 315 309 305 310 311 304 302 303 303 303 302 301 302 301 303 304 305 306 306 307 311 309 306 304 305 306 308 309 305 303 306 307 308 309 308 308 308 306 305 304
317 318 317 317 316 315 305 304 301 299 305 300 302 302 302 301 302 302 301 303 304 306 305 305 307 305 304 304 304 306 308 313 308 303 302 306 306 308 308 308 305 305 304 304 305
316 316 316 316 316 308 304 303 299 300 306 304 302 303 303 301 302 303 302 303 303 304 305 306 305 302 303 304 305 306 307 308 306 305 306 304 311 316 308 304 304 304 305 304 305
315 316 316 316 313 306 306 300 299 299 320 313 303 302 301 302 303 301 300 303 304 304 304 305 302 302 303 304 304 307 302 302 304 307 319 304 321 314 313 308 305 305 304 304 304
314 315 315 315 309 306 305 300 298 303 330 307 302 299 301 301 302 302 300 301 303 304 303 307 303 303 304 305 303 306 302 303 303 306 303 310 311 315 308 309 309 307 305 305 305
313 312 313 312 310 307 305 301 300 323 329 307 302 301 301 301 301 301 301 302 302 303 303 302 301 303 304 302 301 302 303 303 303 307 316 308 312 317 314 310 307 306 306 306 305
311 313 312 310 311 305 302 304 322 323 312 314 305 302 301 302 302 301 301 303 306 313 312 305 304 302 302 303 303 303 305 327 327 326 326 304 306 313 313 308 306 305 304 305 305
308 312 310 309 305 300 304 315 321 318 315 302 302 303 305 301 302 301 303 304 302 302 305 312 317 304 302 303 303 304 303 316 323 322 318 300 314 312 306 304 306 306 304 304 303
306 309 309 308 305 302 314 315 317 316 313 308 305 309 308 301 302 302 303 304 301 301 306 309 307 302 302 301 301 304 303 300 309 297 306 313 312 309 309 307 305 304 304 304 303
306 307 309 308 307 306 313 311 311 311 308 311 317 313 319 307 307 306 307 303 301 300 299 303 309 301 301 301 301 301 300 308 310 315 321 322 317 316 313 305 302 303 304 304 303
305 307 304 305 305 310 311 310 311 309 309 312 314 316 313 307 305 312 314 303 300 301 300 300 303 304 301 302 306 302 303 302 303 306 314 318 318 313 319 310 307 303 303 302 303
304 304 301 303 308 303 308 303 307 308 306 306 305 308 309 307 310 310 314 311 301 302 302 301 303 307 305 299 298 301 304 303 309 314 304 303 308 310 306 304 302 304 303 303 303
304 304 300 301 308 307 304 306 306 307 306 306 307 306 306 308 312 308 307 299 300 303 307 302 308 314 312 300 298 300 302 301 301 301 304 308 311 304 302 304 304 306 305 303 302
302 302 300 299 303 306 306 305 307 305 307 306 306 305 304 305 305 310 309 302 299 301 300 302 310 312 314 313 305 302 301 301 302 306 307 307 306 306 307 307 307 309 307 305 301
300 302 301 302 301 303 305 308 306 306 305 305 306 307 306 309 308 305 306 307 301 300 302 306 309 307 307 307 306 305 304 305 302 303 308 309 309 309 307 306 306 304 303 301 300
301 302 300 303 301 302 302 304 304 304 305 304 305 306 306 308 307 306 307 306 307 302 302 301 307 299 302 303 303 303 304 304 303 304 304 304 305 304 304 305 304 303 303 300 299
297 298 300 301 301 301 303 302 302 303 302 303 304 305 305 307 306 306 305 305 306 306 304 304 304 302 309 296 296 304 302 302 303 303 303 304 304 305 304 302 301 303 300 299 298
Wind_Speed
9 9 10 11 12 12 11 11 9 9 9 10 10 10 9 6 6 3 4 7 9 13 11 7 4 3 4 4 3 3 6 7 7 6 1 2 3 3 2 8 6 5 8 6 4
9 9 10 10 11 11 11 11 9 9 10 11 10 9 9 4 1 6 7 10 10 11 6 4 2 5 4 4 4 7 6 4 6 3 3 1 5 8 6 8 11 12 12 5 5
9 10 10 11 11 11 11 11 10 9 9 9 10 9 7 1 4 3 10 9 9 9 5 3 3 6 5 4 6 4 6 7 1 4 4 7 9 10 9 10 14 14 9 12 8
8 10 11 11 12 13 13 12 10 10 10 9 9 9 3 2 3 4 12 9 8 6 4 3 5 4 4 5 3 5 6 5 2 1 3 6 7 10 15 18 12 7 8 7 10
8 10 11 12 12 13 14 13 12 11 11 11 9 7 0 4 2 5 10 8 4 3 3 3 6 4 6 2 4 9 7 4 5 6 9 10 15 15 20 19 15 13 11 12 11
8 9 11 14 15 16 16 16 14 14 12 9 6 4 4 5 0 6 6 6 8 6 6 6 4 4 3 3 6 3 7 10 6 6 7 9 12 3 6 2 8 13 15 15 12
10 11 12 13 16 18 19 19 18 15 10 5 3 1 2 4 1 5 5 5 6 7 3 5 3 5 2 3 2 4 7 7 7 3 3 8 13 16 15 9 9 10 12 11 10
11 12 13 14 16 19 23 22 14 5 2 1 1 2 2 1 0 5 5 2 4 4 3 2 2 1 3 0 3 4 4 4 6 2 2 4 11 7 4 6 10 9 9 10 12
11 13 14 16 19 22 23 19 5 3 1 1 1 4 3 2 1 4 5 2 1 1 1 0 1 1 2 4 6 5 6 6 2 4 5 3 14 3 2 7 12 13 15 15 16
12 14 15 16 19 24 23 10 4 1 3 1 2 3 3 1 2 3 3 3 0 1 3 2 3 4 4 5 2 4 6 3 7 5 6 14 26 25 17 16 19 17 15 15 14
11 12 13 15 18 22 23 4 3 4 6 3 4 4 1 5 1 1 3 2 2 3 2 2 4 7 4 3 4 5 6 11 11 6 7 10 20 26 18 19 19 15 10 8 8
11 12 13 15 15 17 10 4 3 2 6 1 1 2 2 3 3 2 6 3 3 4 3 4 7 4 2 1 2 4 8 6 8 3 4 12 24 27 21 9 5 5 4 8 10
10 11 11 13 13 6 6 4 2 2 5 2 1 2 1 3 1 1 5 1 3 4 6 7 3 3 2 3 5 7 7 6 5 10 8 13 11 8 3 4 5 5 4 7 9
9 8 7 9 4 3 2 2 3 2 4 2 1 2 1 3 3 2 3 2 2 3 3 5 4 4 4 6 4 7 3 1 6 8 3 6 6 10 4 6 7 8 9 9 8
10 6 3 3 2 2 0 2 4 1 5 3 2 2 3 4 4 2 2 2 3 3 3 4 3 4 6 3 4 2 1 3 5 3 4 2 3 7 2 4 7 11 11 11 9
7 6 2 3 1 1 1 2 1 1 7 2 1 1 1 0 2 3 2 1 2 2 4 1 1 2 3 1 2 1 4 4 1 2 3 4 3 7 4 3 5 5 10 11 10
6 3 3 2 1 0 0 2 1 4 3 3 1 2 1 1 1 2 2 4 4 2 5 4 4 3 3 3 3 3 5 3 3 3 2 5 3 11 9 3 2 5 5 6 7
7 7 4 2 1 2 1 1 6 2 4 1 2 2 2 2 2 1 2 4 5 3 2 4 4 5 6 2 2 5 2 3 6 4 4 2 7 4 1 3 5 6 5 4 7
3 7 3 3 3 1 2 4 5 5 2 4 2 4 3 3 2 2 4 2 2 6 4 2 3 4 2 2 3 4 4 3 2 2 3 5 6 13 9 11 10 9 8 9 6
4 5 5 5 5 2 1 6 4 2 3 2 3 3 3 4 3 2 3 3 3 1 1 3 3 2 3 1 2 3 1 2 2 4 6 4 4 10 5 1 4 4 1 1 1
4 3 1 8 8 2 6 6 5 5 6 5 3 2 5 2 2 1 3 2 2 3 4 1 1 3 2 5 1 3 3 4 3 3 4 8 5 1 4 7 3 4 5 5 11
5 4 1 12 4 3 7 6 3 5 6 5 2 4 4 3 3 3 4 3 2 4 3 1 1 3 5 4 2 1 2 4 4 3 4 3 11 11 7 5 3 7 7 10 11
3 2 2 3 6 8 2 4 6 5 7 7 8 8 3 4 3 6 2 3 2 3 3 4 2 3 4 2 3 5 7 7 4 3 11 8 9 5 3 7 9 12 9 9 13
2 2 2 2 2 11 8 7 6 7 13 7 5 5 4 6 9 2 2 1 2 3 2 2 3 6 11 8 3 4 8 11 10 5 9 17 27 26 23 23 19 16 14 10 11
3 4 6 5 10 12 15 6 8 9 8 10 6 15 10 6 8 5 7 4 5 5 4 1 6 6 12 14 13 14 15 15 15 19 11 25 23 25 25 24 22 20 7 8 9
3 2 2 3 10 16 20 17 15 10 10 6 16 12 18 14 11 5 8 7 6 7 7 3 3 1 5 8 9 14 19 18 21 24 24 29 31 27 26 17 15 14 5 8 11
10 5 4 7 10 12 17 20 18 19 12 17 12 15 12 15 15 12 6 5 3 7 9 7 4 4 6 2 3 9 11 19 15 18 19 20 23 19 25 22 18 9 9 10 8
Wind_Direction
349 351 356 358 357 356 356 355 356 353 353 353 354 355 356 6 21 359 28 330 322 329 331 294 261 192 204 175 233 266 247 254 251 242 88 116 263 146 326 266 236 235 278 46 73
347 347 346 347 353 353 350 348 348 349 349 349 349 346 350 357 267 43 343 338 328 329 328 303 183 200 181 187 193 231 254 297 20 323 273 247 271 312 277 249 249 247 245 226 249
352 352 348 345 346 349 347 344 341 340 340 342 341 340 346 2 244 55 341 343 340 334 279 295 245 244 220 200 190 183 253 22 280 315 310 291 279 260 267 268 258 262 266 221 254
357 355 352 350 346 346 345 341 338 334 329 332 336 341 341 190 311 0 346 349 352 352 291 263 231 227 239 221 191 252 248 271 327 349 284 274 308 266 254 252 294 269 286 256 254
355 355 353 351 347 344 341 336 331 327 325 324 331 341 224 216 82 341 357 358 358 339 5 306 250 270 245 242 241 244 277 269 268 265 269 276 265 267 270 265 262 260 245 249 251
343 349 351 349 347 347 343 335 323 315 312 310 322 333 247 239 51 348 4 16 25 24 26 7 349 313 303 250 244 0 285 276 273 270 268 274 274 293 252 206 248 239 238 244 244
335 340 346 349 345 342 340 332 320 311 306 303 317 313 256 78 62 12 18 28 27 28 23 31 344 294 339 254 326 300 294 270 233 262 269 301 271 227 250 210 239 222 231 240 235
329 333 338 341 347 344 339 334 324 316 301 293 301 254 87 163 121 14 18 37 34 36 66 23 7 118 316 316 237 262 257 274 117 282 127 293 279 180 175 211 245 243 241 239 229
325 330 333 339 343 344 342 337 343 341 325 245 227 255 122 131 180 346 15 3 328 77 67 316 279 324 199 261 256 197 291 270 277 47 322 280 291 271 126 240 257 259 260 256 251
313 323 328 335 341 342 342 332 336 4 316 229 212 204 150 59 320 323 332 343 259 226 215 241 242 256 222 230 265 323 292 274 285 36 313 284 273 281 279 274 275 273 267 266 260
299 305 311 323 333 341 345 337 264 185 37 19 335 306 339 331 307 23 351 280 235 217 247 72 263 235 11 342 318 298 282 282 292 32 308 275 284 287 287 282 278 273 260 237 219
284 299 308 314 326 337 355 45 63 346 303 107 279 261 327 335 273 56 347 253 227 235 168 209 240 57 79 141 263 260 288 289 290 15 301 300 293 284 288 264 267 279 195 175 178
290 293 298 316 326 352 47 76 64 352 260 127 16 325 5 308 296 30 328 286 250 224 219 257 72 123 222 227 263 252 255 295 282 319 265 308 272 279 179 210 232 217 218 183 180
329 306 306 313 325 344 54 7 17 5 292 173 120 66 309 319 225 9 15 323 199 256 219 266 107 202 227 252 226 277 46 281 297 337 302 14 287 293 265 244 204 204 204 205 201
348 343 333 340 303 21 128 349 351 305 299 55 81 338 352 302 347 102 10 204 230 170 212 86 179 202 238 265 199 11 347 310 310 296 323 176 228 276 166 228 217 206 209 208 214
341 359 11 350 288 208 231 322 8 89 247 102 109 360 292 80 331 323 253 212 7 206 218 297 103 241 343 97 260 61 276 226 244 168 242 144 226 286 245 145 156 169 202 213 211
314 272 248 268 17 266 203 273 343 215 344 317 38 6 331 332 221 324 283 217 207 150 214 172 197 144 202 225 179 244 280 276 249 216 274 146 212 250 282 169 193 168 172 213 213
283 229 224 187 145 119 272 40 213 224 218 200 243 237 272 343 176 226 263 268 233 254 265 236 231 187 151 264 10 187 297 298 289 287 349 163 240 243 337 346 257 237 241 251 230
285 223 257 212 174 279 228 214 222 215 151 187 185 228 187 188 259 285 223 253 325 224 242 247 182 117 76 343 308 133 204 55 293 143 271 233 263 268 275 230 242 231 247 246 239
292 235 211 225 193 199 149 235 243 254 141 103 226 229 251 180 199 189 209 154 171 203 330 43 276 27 90 228 164 283 31 238 172 282 273 232 262 261 263 86 122 151 184 205 317
274 231 190 182 157 182 218 225 245 215 205 214 237 268 239 251 234 231 280 139 243 160 197 197 248 109 171 198 241 159 227 221 285 241 274 298 267 16 24 21 25 64 358 343 321
254 232 218 161 173 200 211 193 294 212 208 230 211 239 226 209 225 248 251 232 124 174 187 134 228 230 239 96 47 55 297 241 261 213 254 301 265 307 60 72 8 300 291 306 315
233 227 217 193 211 213 204 244 248 206 204 197 212 219 210 215 239 220 201 34 137 213 192 174 193 277 184 178 185 223 195 217 224 263 255 263 263 110 5 308 275 288 268 297 309
261 230 215 230 265 229 200 222 224 220 236 212 225 175 164 216 226 201 226 194 184 202 270 195 206 241 261 317 39 210 207 213 207 234 272 247 282 277 280 277 297 303 319 306 310
228 229 199 208 230 220 230 190 209 212 219 217 239 207 195 217 219 209 229 233 205 188 184 156 250 231 259 277 282 266 263 246 225 238 247 267 264 287 287 298 301 303 315 303 294
231 213 222 228 227 207 220 230 215 225 189 216 228 209 221 227 210 191 216 222 231 174 179 174 250 137 262 247 269 268 259 255 250 255 256 262 271 273 285 298 308 302 292 301 303
231 248 272 239 218 224 218 228 233 216 241 231 218 235 227 231 241 256 304 274 248 182 197 182 202 207 250 84 313 271 242 226 243 243 242 254 261 298 306 311 307 293 296 300 299